Santiago, Dominican Republic

5:29 AM AST on February 13, 2016 (GMT -0400)
Cibao International

Weather History for MDST - December, 2012

Change the Weather History Date:

Monday, December 10, 2012

  Actual Average Record
Temperature  
Mean Temperature 74 °F -  
Max Temperature 83 °F 84 °F 89 °F (1997)
Min Temperature 65 °F 66 °F 61 °F (2014)
Cooling Degree Days 9    
Growing Degree Days 24 (Base 50)    
Moisture  
Dew Point 71 °F    
Average Humidity 93    
Maximum Humidity 100    
Minimum Humidity 65    
Precipitation  
Precipitation 0.00 in 0.09 in - ()
Sea Level Pressure  
Sea Level Pressure 30.01 in    
Wind  
Wind Speed 4 mph ()    
Max Wind Speed 14 mph    
Max Gust Speed -    
Visibility 4.9 miles    
Events Fog , Rain    
Averages and records for this station are not official NWS values.
T = Trace of Precipitation, MM = Missing Value Source: Averaged Metar Reports

Daily Weather History Graph

Daily Weather History Graph

Search for Another Location

Airport or City:

Trip Planner

Search our weather history database for the weather conditions in past years. The results will help you decide how hot, cold, wet, or windy it might be!

Date:

Astronomy

Dec. 10, 2012 Rise Set
Actual Time 7:06 AM AST 6:05 PM AST
Civil Twilight 6:42 AM AST 6:29 PM AST
Nautical Twilight 6:15 AM AST 6:56 PM AST
Astronomical Twilight 5:48 AM AST 7:23 PM AST
Moon 4:01 AM AST (12/10) 3:40 PM AST (12/10)
Length of Visible Light 11h 46m
Length of Day
10h 59m
Waning Crescent, 11% of the Moon is Illuminated
Dec 10
Waning Crescent
Dec 13
New
Dec 20
First Quarter
Dec 28
Full
Jan 4
Last Quarter

Hourly Weather History & Observations

Time (AST) Temp. Heat Index Dew Point Humidity Pressure Visibility Wind Dir Wind Speed Gust Speed Precip Events Conditions
12:00 AM 73.4 °F - 73.4 °F 100% 30.09 in 6.2 mi ESE 5.8 mph - N/A   Partly Cloudy
1:00 AM 69.8 °F - 69.8 °F 100% 30.01 in 6.2 mi East 4.6 mph - N/A   Scattered Clouds
2:00 AM 69.8 °F - 69.8 °F 100% 30.04 in 6.2 mi Calm Calm - N/A   Scattered Clouds
3:00 AM 69.8 °F - 69.8 °F 100% 30.01 in 6.2 mi East 5.8 mph - N/A   Scattered Clouds
4:00 AM 69.8 °F - 69.8 °F 100% 30.01 in 6.2 mi SE 5.8 mph - N/A   Scattered Clouds
5:00 AM 69.8 °F - 69.8 °F 100% 29.98 in 6.2 mi East 4.6 mph - N/A   Scattered Clouds
6:00 AM 68.0 °F - 68.0 °F 100% 30.01 in 6.2 mi Calm Calm - N/A   Partly Cloudy
7:00 AM 68.0 °F - 68.0 °F 100% 30.01 in 6.2 mi Calm Calm - N/A   Partly Cloudy
8:00 AM 68 °F - 67 °F 96% 30.03 in 3 mi Calm Calm - -   Haze
8:00 AM 68.0 °F - 68.0 °F 100% 30.01 in 3.1 mi Calm Calm - N/A   Haze
9:00 AM 73.4 °F - 71.6 °F 94% 30.04 in 6.2 mi Calm Calm - N/A   Scattered Clouds
10:00 AM 75.2 °F - 71.6 °F 89% 30.04 in 6.2 mi ESE 4.6 mph - N/A   Scattered Clouds
11:00 AM 78.8 °F - 73.4 °F 83% 30.04 in 6.2 mi ESE 13.8 mph - N/A   Mostly Cloudy
12:00 PM 78.8 °F - 73.4 °F 83% 30.04 in 6.2 mi SE 9.2 mph - N/A   Partly Cloudy
1:00 PM 80.6 °F 85.4 °F 73.4 °F 79% 30.01 in 6.2 mi East 9.2 mph - N/A   Scattered Clouds
2:00 PM 82 °F - 72 °F 65% 29.98 in 5 mi SSE 8.9 mph - -   Haze
2:00 PM 82.4 °F 87.2 °F 71.6 °F 70% 29.98 in 6.2 mi SSE 9.2 mph - N/A   Mostly Cloudy
3:00 PM 73.4 °F - 71.6 °F 94% 29.98 in 1.2 mi ESE 9.2 mph - N/A Rain Heavy Rain
4:00 PM 73.4 °F - 73.4 °F 100% 29.95 in 3.7 mi Calm Calm - N/A Rain Rain
5:00 PM 74 °F - 73 °F 95% 29.98 in 1 mi SSE 4.5 mph - - Rain Light Rain
5:00 PM 75.2 °F - 73.4 °F 94% 29.98 in 1.2 mi SSE 5.8 mph - N/A Rain Heavy Rain
6:00 PM 73.4 °F - 71.6 °F 94% 29.98 in 3.7 mi SSE 6.9 mph - N/A Rain Rain
7:00 PM 71.6 °F - 71.6 °F 100% 30.01 in 3.1 mi NE 5.8 mph - N/A Rain Rain
8:00 PM 69.8 °F - 69.8 °F 100% 30.01 in 6.2 mi Calm Calm - N/A   Mostly Cloudy
9:00 PM 71.6 °F - 69.8 °F 94% 30.04 in 6.2 mi Calm Calm - N/A   Scattered Clouds
10:00 PM 71.6 °F - 69.8 °F 94% 30.04 in 6.2 mi Calm Calm - N/A   Scattered Clouds
11:00 PM 69.8 °F - 69.8 °F 100% 30.04 in 1.2 mi Calm Calm - N/A Fog Fog